• In India
  • List of Countries
  • For 7 days
  • Water Temperature
  • Satellite Maps
  • Weather Map
  • Weather Widgets
  • user-avatar
    Login

    Hourly Weather Bregenz

    Today, 24 September, Monday

    Time Temperature Precipitation Wind Pressure Humidity
    00:00 +8°C° 2.8 mm 3 mps 648 mmHg 96%
    01:00 +7°C° 2.8 mm 3 mps 649 mmHg 96%
    02:00 +5°C° 0.5 mm 3 mps 649 mmHg 96%
    03:00 +4°C° 0.5 mm 3 mps 649 mmHg 96%
    04:00 +4°C° 0.5 mm 3 mps 650 mmHg 96%
    05:00 +3°C° 0.1 mm 3 mps 650 mmHg 96%
    06:00 +4°C° 0.1 mm 2 mps 651 mmHg 96%
    07:00 +3°C° 0.1 mm 2 mps 651 mmHg 96%
    08:00 +4°C° 0.1 mm 2 mps 652 mmHg 93%
    09:00 +4°C° 0.1 mm 2 mps 652 mmHg 91%
    10:00 +4°C° 0.1 mm 2 mps 653 mmHg 88%
    11:00 +5°C° 0 mm 2 mps 653 mmHg 81%
    12:00 +6°C° 0 mm 2 mps 654 mmHg 74%
    13:00 +7°C° 0 mm 2 mps 654 mmHg 68%
    14:00 +7°C° 0 mm 3 mps 654 mmHg 65%
    15:00 +7°C° 0 mm 3 mps 654 mmHg 62%
    16:00 +7°C° 0 mm 3 mps 654 mmHg 60%
    17:00 +5°C° 0 mm 3 mps 654 mmHg 67%
    18:00 +4°C° 0 mm 2 mps 654 mmHg 74%
    19:00 +2°C° 0 mm 2 mps 654 mmHg 81%
    20:00 +2°C° 0 mm 2 mps 654 mmHg 83%
    21:00 +1°C° 0 mm 2 mps 654 mmHg 85%
    22:00 +1°C° 0 mm 2 mps 655 mmHg 87%
    23:00 +1°C° 0 mm 2 mps 655 mmHg 87%

    Tomorrow, 25 September, Tuesday

    Time Temperature Precipitation Wind Pressure Humidity
    00:00 -1°C° 0 mm 2 mps 655 mmHg 87%
    01:00 +1°C° 0 mm 1 mps 655 mmHg 88%
    02:00 +1°C° 0 mm 1 mps 654 mmHg 86%
    03:00 -1°C° 0 mm 2 mps 654 mmHg 85%
    04:00 -2°C° 0 mm 2 mps 654 mmHg 83%
    05:00 -1°C° 0 mm 2 mps 654 mmHg 80%
    06:00 -1°C° 0 mm 2 mps 654 mmHg 76%
    07:00 -1°C° 0 mm 2 mps 655 mmHg 72%
    08:00 +3°C° 0 mm 2 mps 655 mmHg 64%
    09:00 +4°C° 0 mm 3 mps 656 mmHg 56%
    10:00 +8°C° 0 mm 3 mps 656 mmHg 47%
    11:00 +9°C° 0 mm 3 mps 656 mmHg 47%
    12:00 +8°C° 0 mm 4 mps 656 mmHg 46%
    13:00 +10°C° 0 mm 4 mps 656 mmHg 46%
    14:00 +10°C° 0 mm 4 mps 656 mmHg 49%
    15:00 +10°C° 0 mm 4 mps 656 mmHg 52%
    16:00 +8°C° 0 mm 4 mps 656 mmHg 55%
    17:00 +7°C° 0 mm 3 mps 656 mmHg 64%
    18:00 +4°C° 0 mm 3 mps 655 mmHg 72%
    19:00 +3°C° 0 mm 2 mps 655 mmHg 81%
    20:00 +3°C° 0 mm 2 mps 655 mmHg 80%
    21:00 +2°C° 0 mm 2 mps 655 mmHg 79%
    22:00 +2°C° 0 mm 2 mps 656 mmHg 78%
    23:00 +2°C° 0 mm 2 mps 656 mmHg 77%

    Day after tomorrow, 26 September, Wednesday

    Time Temperature Precipitation Wind Pressure Humidity
    00:00 +2°C° 0 mm 2 mps 655 mmHg 76%
    01:00 +2°C° 0 mm 2 mps 655 mmHg 75%
    02:00 +2°C° 0 mm 2 mps 655 mmHg 76%
    03:00 +2°C° 0 mm 1 mps 655 mmHg 76%
    04:00 +2°C° 0 mm 1 mps 655 mmHg 77%
    05:00 +3°C° 0 mm 1 mps 655 mmHg 75%
    06:00 +3°C° 0 mm 1 mps 655 mmHg 74%
    07:00 +3°C° 0 mm 1 mps 655 mmHg 72%
    08:00 +6°C° 0 mm 1 mps 656 mmHg 64%
    09:00 +10°C° 0 mm 1 mps 657 mmHg 55%
    10:00 +12°C° 0 mm 0 mps 658 mmHg 47%
    11:00 +14°C° 0 mm 1 mps 658 mmHg 45%
    12:00 +15°C° 0 mm 1 mps 658 mmHg 43%
    13:00 +16°C° 0 mm 1 mps 658 mmHg 41%
    14:00 +16°C° 0 mm 1 mps 658 mmHg 44%
    15:00 +15°C° 0 mm 1 mps 658 mmHg 48%
    16:00 +15°C° 0 mm 1 mps 658 mmHg 51%
    17:00 +12°C° 0 mm 1 mps 657 mmHg 61%
    18:00 +10°C° 0 mm 1 mps 656 mmHg 71%
    19:00 +7°C° 0 mm 1 mps 656 mmHg 81%
    20:00 +7°C° 0 mm 1 mps 656 mmHg 79%
    21:00 +7°C° 0 mm 1 mps 656 mmHg 78%
    22:00 +7°C° 0 mm 1 mps 656 mmHg 76%
    23:00 +7°C° 0 mm 1 mps 656 mmHg 73%

    27 September, Thursday

    Time Temperature Precipitation Wind Pressure Humidity
    00:00 +7°C° 0 mm 1 mps 656 mmHg 70%
    01:00 +6°C° 0 mm 1 mps 655 mmHg 67%
    02:00 +6°C° 0 mm 1 mps 655 mmHg 65%
    03:00 +6°C° 0 mm 1 mps 655 mmHg 63%
    04:00 +6°C° 0 mm 1 mps 655 mmHg 60%
    05:00 +6°C° 0 mm 1 mps 655 mmHg 59%
    06:00 +7°C° 0 mm 1 mps 655 mmHg 58%
    07:00 +7°C° 0 mm 1 mps 655 mmHg 57%
    08:00 +10°C° 0 mm 1 mps 655 mmHg 52%
    09:00 +13°C° 0 mm 1 mps 656 mmHg 47%
    10:00 +16°C° 0 mm 1 mps 657 mmHg 41%
    11:00 +18°C° 0 mm 1 mps 657 mmHg 41%
    12:00 +19°C° 0 mm 1 mps 656 mmHg 40%
    13:00 +20°C° 0 mm 1 mps 656 mmHg 39%
    14:00 +19°C° 0 mm 1 mps 656 mmHg 43%
    15:00 +19°C° 0 mm 1 mps 656 mmHg 47%
    16:00 +19°C° 0 mm 1 mps 655 mmHg 51%
    17:00 +15°C° 0 mm 1 mps 654 mmHg 61%
    18:00 +12°C° 0 mm 1 mps 653 mmHg 71%
    19:00 +9°C° 0 mm 1 mps 653 mmHg 81%
    20:00 +9°C° 0 mm 1 mps 653 mmHg 80%
    21:00 +9°C° 0 mm 1 mps 652 mmHg 79%
    22:00 +8°C° 0 mm 1 mps 652 mmHg 78%
    23:00 +8°C° 0 mm 1 mps 652 mmHg 77%

    28 September, Friday

    Time Temperature Precipitation Wind Pressure Humidity
    00:00 +8°C° 0 mm 1 mps 651 mmHg 75%
    01:00 +8°C° 0 mm 1 mps 651 mmHg 73%
    02:00 +7°C° 0 mm 1 mps 651 mmHg 71%
    03:00 +7°C° 0 mm 1 mps 650 mmHg 70%
    04:00 +7°C° 0 mm 1 mps 650 mmHg 68%
    05:00 +7°C° 0 mm 1 mps 650 mmHg 68%
    06:00 +7°C° 0 mm 1 mps 650 mmHg 68%
    07:00 +7°C° 0 mm 1 mps 650 mmHg 68%
    08:00 +10°C° 0 mm 1 mps 650 mmHg 63%
    09:00 +13°C° 0 mm 1 mps 651 mmHg 57%
    10:00 +15°C° 0 mm 0 mps 652 mmHg 51%
    11:00 +18°C° 0 mm 1 mps 651 mmHg 50%
    12:00 +18°C° 0 mm 1 mps 651 mmHg 48%
    13:00 +19°C° 0 mm 1 mps 651 mmHg 47%
    14:00 +18°C° 0 mm 2 mps 651 mmHg 51%
    15:00 +17°C° 0 mm 2 mps 651 mmHg 55%
    16:00 +17°C° 0 mm 2 mps 650 mmHg 60%
    17:00 +14°C° 0 mm 1 mps 650 mmHg 70%
    18:00 +12°C° 0 mm 1 mps 649 mmHg 80%
    19:00 +9°C° 0 mm 1 mps 649 mmHg 90%
    20:00 +9°C° 0 mm 1 mps 649 mmHg 91%
    21:00 +8°C° 0 mm 1 mps 649 mmHg 92%
    22:00 +8°C° 0 mm 1 mps 649 mmHg 93%
    23:00 +7°C° 0 mm 1 mps 649 mmHg 93%

    29 September, Saturday

    Time Temperature Precipitation Wind Pressure Humidity
    00:00 +7°C° 0 mm 1 mps 649 mmHg 93%
    01:00 +7°C° 0 mm 1 mps 649 mmHg 93%
    02:00 +6°C° 0 mm 1 mps 648 mmHg 93%
    03:00 +6°C° 0 mm 1 mps 648 mmHg 93%
    04:00 +6°C° 0 mm 1 mps 648 mmHg 93%
    05:00 +6°C° 0 mm 1 mps 648 mmHg 91%
    06:00 +6°C° 0 mm 1 mps 648 mmHg 90%
    07:00 +5°C° 0 mm 2 mps 649 mmHg 89%
    08:00 +8°C° 0 mm 2 mps 649 mmHg 80%
    09:00 +10°C° 0 mm 2 mps 650 mmHg 72%
    10:00 +13°C° 0 mm 2 mps 650 mmHg 63%
    11:00 +14°C° 0 mm 2 mps 650 mmHg 61%
    12:00 +14°C° 0 mm 3 mps 650 mmHg 58%
    13:00 +16°C° 0 mm 3 mps 650 mmHg 56%
    14:00 +16°C° 0 mm 3 mps 650 mmHg 59%
    15:00 +16°C° 0 mm 3 mps 650 mmHg 62%
    16:00 +14°C° 0 mm 3 mps 650 mmHg 65%
    17:00 +13°C° 0 mm 2 mps 649 mmHg 74%
    18:00 +10°C° 0 mm 2 mps 649 mmHg 82%
    19:00 +8°C° 0 mm 2 mps 649 mmHg 91%
    20:00 +9°C° 0 mm 1 mps 649 mmHg 89%
    21:00 +9°C° 0 mm 1 mps 649 mmHg 88%
    22:00 +8°C° 0 mm 1 mps 649 mmHg 87%
    23:00 +8°C° 0 mm 1 mps 648 mmHg 86%
    Show more